パンスターズ彗星

P/2013 N3 ( PanSTARRS )

English version
Home page
Updated on April 29, 2014

---------------------------------------------------------------------

・ プロフィール

発見日 2013年7月4日
発見光度 20.7等
発見者 Pan-STARRS 1 telescope (Haleakala)

・ 写真集

・ 軌道要素

Epoch 2014 Jan. 23.0 TT = JDT 2456680.5
T 2014 Feb. 11.78791 TT                                 MPC
q   3.0288803            (2000.0)            P               Q
n   0.04869727     Peri.  323.95639     +0.94892127     +0.31530334
a   7.4267641      Node    17.67511     -0.27989009     +0.85804738
e   0.5921669      Incl.    2.17052     -0.14563642     +0.40538686
P  20.2
From 44 observations 2013 July 4-Nov. 23, mean residual 0".3.

・ 光度変化

        m1 = 12.5 + 5 logΔ + 10.0 log r

---------------------------------------------------------------------

軌道要素はM.P.E.C. 2013-W13に掲載されたものです。
光度グラフはComet for Windowsで作成したものです。

---------------------------------------------------------------------

Copyright(C) Seiichi Yoshida (comet@aerith.net). All rights reserved.